Wind_Speed
73 74 66 53 46 48 48 51 46 47 42 36 38 40 42 42 40 43 43 43 44 49 51 53 61 60 60 62 61 63 64 65 70 76 80 78 75 70
68 66 64 51 45 45 49 47 47 42 45 42 41 40 41 41 41 44 43 45 47 50 52 56 58 60 62 62 63 64 64 68 74 78 76 74 66 58
65 63 49 38 40 44 48 45 45 42 46 44 43 43 41 40 43 45 44 48 50 53 58 60 58 61 62 62 64 64 65 72 76 75 71 64 54 52
62 60 50 43 44 44 42 43 40 42 47 45 44 44 40 42 41 43 45 49 53 55 59 55 62 62 62 63 64 64 68 74 73 68 63 54 49 53
55 56 51 48 46 46 52 48 42 40 46 44 48 43 43 41 42 46 46 48 52 56 57 57 61 62 62 62 63 66 71 71 68 60 51 47 50 54
56 57 54 49 47 51 44 44 43 41 42 45 45 42 46 40 46 43 45 48 51 54 54 58 61 62 61 63 64 69 72 69 61 53 43 48 49 52
67 60 55 48 47 52 46 49 45 42 46 39 41 44 45 43 46 42 45 47 50 55 55 58 61 61 61 62 65 71 69 64 55 42 43 46 45 49
70 60 60 50 46 49 49 51 46 46 47 43 40 45 45 45 44 42 46 48 52 53 55 60 63 62 61 62 66 69 63 58 46 39 43 43 43 44
60 60 59 51 48 48 47 51 43 46 43 48 40 45 46 46 43 44 46 49 50 53 58 62 63 61 61 64 67 65 59 51 36 41 42 44 43 39
60 56 57 51 47 46 46 49 44 42 41 44 46 45 43 43 43 45 47 44 52 56 58 62 61 61 62 65 67 61 55 39 35 41 41 42 41 36
58 51 51 50 44 42 44 45 46 41 43 50 42 46 43 41 42 45 45 51 53 54 58 62 61 61 63 67 64 58 45 30 36 41 41 43 39 33
51 44 39 44 39 38 44 43 41 43 43 46 44 45 43 42 41 43 46 50 49 54 58 59 60 61 64 66 61 50 33 35 39 42 46 41 36 29
46 39 33 33 37 34 40 41 42 45 41 42 42 44 41 40 38 42 45 45 51 54 57 57 59 61 65 59 56 39 37 37 40 44 45 39 33 28
43 37 31 37 35 36 39 41 42 43 38 37 40 39 39 36 37 39 46 48 52 54 55 56 58 62 64 53 41 38 42 41 42 44 43 42 33 24
44 44 39 36 37 38 35 40 42 40 38 37 36 36 37 37 38 41 46 48 51 53 54 55 58 63 57 43 33 38 40 42 42 42 43 37 25 20
37 39 40 30 33 37 33 36 41 37 34 34 35 34 40 39 36 41 45 48 50 51 52 54 59 59 48 37 35 38 40 41 43 42 40 27 21 15
36 38 39 29 30 29 31 36 36 34 33 34 37 33 40 34 36 38 42 45 48 48 50 53 59 49 39 32 37 40 43 43 42 38 29 21 15 19
40 35 34 26 31 32 34 39 38 33 31 32 36 37 36 31 36 37 39 43 45 47 49 54 55 46 38 35 38 41 44 40 37 27 22 23 20 17
43 44 36 34 33 33 33 37 37 30 30 34 34 33 28 34 36 34 37 41 43 45 49 54 47 38 34 39 40 41 38 34 30 26 22 21 21 21
31 44 40 35 31 30 30 32 31 27 27 30 25 23 31 34 31 31 36 38 40 44 51 48 38 30 34 37 39 36 29 30 32 32 30 27 18 8
29 34 35 30 26 23 22 25 24 25 29 30 21 30 32 30 27 31 33 36 39 44 48 38 29 31 33 37 36 35 28 28 27 27 28 21 15 16
37 32 30 37 27 19 17 26 22 21 23 18 25 27 25 25 26 29 32 35 39 45 39 28 27 30 35 37 36 33 29 33 29 21 21 25 23 21
33 36 28 27 24 20 23 17 25 17 16 22 25 23 23 22 24 28 30 34 40 41 30 25 28 30 36 36 33 28 28 29 26 26 27 26 26 22
Wind_Direction
292 291 287 289 283 283 281 281 282 283 282 277 279 280 286 293 298 298 296 298 301 302 305 308 313 312 315 314 312 312 312 312 314 317 318 317 310 306
292 289 289 280 276 278 281 281 283 281 282 280 280 282 287 295 299 298 297 300 301 304 307 308 311 314 314 314 312 312 314 315 319 320 318 314 311 310
294 290 282 284 286 285 280 279 278 282 284 279 282 285 287 295 301 300 301 303 303 307 308 310 312 312 314 313 313 315 317 319 322 320 316 313 314 314
292 289 285 277 280 280 280 278 280 279 279 278 281 282 289 294 300 300 300 302 304 304 307 311 313 314 315 314 315 317 320 324 322 317 316 316 314 316
285 285 279 278 271 275 275 275 276 274 275 274 281 282 286 293 296 294 299 300 302 306 309 312 314 315 316 315 317 320 324 323 320 316 317 316 317 320
282 279 280 275 280 281 278 276 278 274 269 272 278 282 288 294 293 299 298 302 305 309 307 312 313 316 316 318 319 324 325 323 319 318 317 319 321 325
286 276 275 272 276 279 277 281 278 275 272 269 276 280 287 291 295 301 303 306 311 313 311 311 315 316 317 320 322 326 324 320 320 318 319 323 323 327
282 278 274 270 269 272 272 275 275 278 276 273 274 277 288 292 296 303 305 309 313 312 312 313 317 316 319 322 325 327 321 321 319 318 322 324 321 327
277 275 274 265 263 265 268 271 274 277 274 273 278 284 289 294 298 303 307 312 314 312 314 315 317 318 319 323 327 325 322 320 316 322 321 320 320 321
279 274 273 262 261 263 268 269 273 273 277 270 284 284 290 294 300 304 309 315 316 313 314 316 317 317 321 325 329 324 323 316 319 321 321 321 321 316
272 272 274 263 257 257 261 268 273 267 280 282 283 283 288 294 301 303 309 316 313 313 314 317 317 320 323 328 329 324 322 314 319 317 318 323 320 309
275 269 272 267 260 256 260 262 268 278 283 289 283 283 288 295 302 306 310 315 312 313 315 317 318 323 327 330 327 325 320 321 319 318 319 323 317 307
270 271 265 265 262 266 260 260 266 274 286 283 284 283 291 300 305 309 316 315 314 314 316 318 321 324 330 327 325 324 324 324 323 322 323 325 317 308
267 262 267 263 268 265 263 260 267 273 284 278 285 287 293 300 304 310 317 315 312 314 317 319 322 327 331 327 325 329 327 327 325 324 323 326 316 307
262 261 260 269 268 260 260 265 263 268 277 285 289 293 298 298 307 317 317 315 313 315 317 321 324 329 329 329 325 330 329 329 326 324 325 327 317 314
264 252 258 267 274 256 259 268 263 264 273 276 287 294 301 305 316 319 314 312 313 315 319 322 329 330 329 330 329 329 328 328 325 326 327 333 326 325
265 265 265 265 269 262 267 268 259 260 269 271 284 296 296 306 314 308 309 310 313 315 320 326 330 328 332 328 329 329 329 329 329 328 327 335 331 326
264 263 261 263 273 274 281 263 258 259 261 274 281 288 298 304 304 303 306 311 313 317 322 329 330 331 330 329 330 331 329 332 335 335 328 327 330 331
245 255 252 268 271 274 278 259 257 260 260 269 280 288 294 296 298 300 307 312 314 319 327 331 331 333 334 335 334 336 331 335 341 342 340 337 333 325
228 249 259 266 271 268 272 254 256 262 264 270 284 285 285 291 294 302 312 311 316 323 331 333 332 335 336 336 337 341 339 333 334 340 341 337 338 317
235 233 250 263 273 271 254 248 250 251 262 273 284 277 288 292 297 309 308 314 319 328 334 333 335 338 339 341 339 341 340 346 344 339 334 333 327 320
225 229 244 256 262 251 251 248 248 249 267 262 263 278 288 293 304 308 312 316 323 333 334 334 340 342 343 338 339 342 345 349 358 353 333 329 326 317
219 217 227 240 248 253 268 253 233 253 245 254 269 279 287 294 306 307 313 318 330 338 337 344 343 343 342 340 341 348 351 350 348 347 351 340 329 323
Height
5673 5666 5660 5656 5653 5649 5647 5644 5643 5642 5640 5638 5632 5628 5625 5622 5619 5615 5609 5604 5598 5593 5587 5579 5570 5560 5548 5538 5528 5518 5508 5498 5487 5476 5462 5447 5432 5417
5658 5652 5646 5642 5639 5638 5634 5632 5630 5628 5627 5626 5622 5619 5615 5612 5607 5603 5597 5592 5587 5580 5572 5564 5555 5545 5534 5523 5513 5503 5493 5482 5470 5457 5441 5425 5412 5400
5644 5637 5632 5629 5627 5626 5623 5620 5617 5615 5614 5614 5609 5606 5603 5600 5595 5592 5586 5581 5576 5569 5561 5551 5540 5530 5520 5509 5499 5489 5478 5466 5453 5438 5422 5408 5396 5386
5629 5624 5620 5616 5616 5615 5611 5609 5604 5604 5602 5601 5597 5596 5592 5589 5584 5582 5576 5571 5564 5557 5549 5537 5528 5517 5507 5496 5485 5475 5463 5450 5436 5420 5405 5394 5384 5374
5616 5613 5610 5605 5602 5601 5597 5595 5592 5591 5590 5588 5586 5585 5582 5578 5574 5570 5564 5558 5552 5545 5536 5526 5515 5503 5493 5483 5471 5460 5448 5433 5420 5404 5392 5382 5372 5361
5602 5599 5597 5592 5591 5588 5586 5582 5580 5578 5577 5575 5574 5573 5571 5567 5563 5557 5553 5546 5539 5532 5523 5512 5503 5491 5480 5469 5459 5447 5432 5418 5404 5392 5381 5372 5362 5351
5587 5585 5583 5580 5577 5574 5572 5569 5567 5565 5564 5562 5561 5560 5558 5555 5552 5546 5541 5534 5526 5519 5511 5500 5491 5480 5469 5456 5445 5432 5417 5403 5391 5381 5372 5362 5353 5343
5569 5571 5568 5566 5563 5561 5560 5558 5558 5556 5554 5552 5550 5547 5546 5544 5541 5536 5529 5521 5515 5508 5499 5488 5479 5467 5457 5444 5432 5417 5403 5390 5380 5371 5363 5354 5345 5336
5555 5555 5554 5551 5549 5549 5548 5544 5546 5547 5546 5541 5537 5536 5535 5534 5531 5526 5518 5510 5503 5496 5486 5476 5466 5456 5446 5435 5421 5405 5391 5379 5370 5363 5353 5345 5338 5330
5540 5540 5537 5535 5535 5536 5537 5533 5533 5536 5534 5532 5526 5525 5525 5523 5520 5515 5507 5499 5493 5484 5473 5464 5454 5444 5435 5424 5409 5394 5381 5371 5364 5355 5346 5338 5330 5323
5524 5523 5522 5522 5522 5524 5523 5523 5523 5523 5522 5522 5518 5515 5514 5511 5509 5504 5496 5489 5482 5473 5463 5453 5443 5432 5423 5412 5398 5384 5372 5365 5356 5347 5339 5331 5323 5315
5508 5509 5508 5508 5509 5510 5511 5513 5513 5512 5511 5509 5508 5506 5504 5501 5498 5493 5487 5478 5471 5463 5452 5443 5432 5421 5411 5397 5386 5374 5364 5356 5348 5339 5331 5323 5315 5308
5495 5495 5494 5494 5496 5497 5498 5500 5500 5499 5500 5500 5498 5497 5495 5492 5487 5482 5476 5468 5461 5451 5442 5432 5422 5411 5399 5385 5371 5362 5356 5348 5339 5330 5322 5314 5307 5301
5479 5482 5482 5481 5483 5485 5486 5488 5489 5489 5491 5491 5489 5487 5486 5481 5477 5472 5466 5458 5451 5442 5432 5422 5412 5402 5389 5375 5364 5355 5346 5339 5331 5321 5313 5306 5298 5293
5464 5468 5468 5468 5470 5473 5474 5477 5479 5481 5481 5480 5480 5478 5476 5472 5467 5462 5457 5449 5440 5432 5422 5413 5403 5392 5380 5369 5359 5349 5342 5331 5323 5314 5306 5299 5291 5287
5449 5452 5454 5455 5458 5462 5463 5465 5467 5470 5472 5472 5472 5469 5467 5463 5458 5453 5448 5440 5432 5424 5414 5404 5394 5383 5370 5360 5353 5344 5337 5329 5318 5308 5300 5294 5287 5284
5436 5439 5441 5443 5448 5450 5453 5453 5456 5459 5462 5463 5463 5461 5459 5455 5449 5445 5438 5431 5424 5415 5407 5397 5387 5375 5364 5355 5346 5338 5330 5321 5312 5302 5294 5291 5286 5282
5423 5425 5430 5432 5437 5439 5441 5443 5447 5450 5452 5454 5454 5453 5450 5446 5441 5436 5429 5423 5416 5407 5399 5389 5378 5368 5358 5350 5342 5332 5323 5314 5305 5296 5290 5286 5282 5278
5411 5415 5420 5422 5425 5428 5430 5434 5438 5441 5444 5445 5446 5445 5442 5437 5433 5428 5422 5415 5408 5400 5392 5382 5370 5360 5351 5343 5338 5328 5317 5309 5302 5295 5290 5284 5280 5274
5400 5405 5408 5413 5416 5417 5419 5425 5430 5433 5435 5437 5438 5436 5433 5430 5425 5420 5415 5409 5401 5394 5385 5375 5365 5356 5349 5342 5332 5324 5315 5306 5298 5291 5285 5279 5275 5271
5388 5394 5397 5403 5405 5407 5411 5417 5421 5424 5428 5430 5431 5428 5426 5422 5418 5414 5409 5402 5395 5388 5379 5369 5360 5353 5346 5338 5329 5320 5312 5306 5297 5290 5282 5276 5270 5266
5377 5384 5389 5393 5398 5402 5407 5410 5414 5418 5422 5423 5422 5421 5419 5415 5412 5408 5403 5397 5390 5383 5373 5364 5357 5351 5344 5335 5326 5317 5308 5301 5294 5288 5280 5272 5265 5258
5367 5375 5381 5386 5391 5394 5399 5403 5408 5413 5414 5415 5415 5414 5412 5409 5406 5403 5398 5392 5385 5377 5368 5361 5355 5350 5342 5332 5323 5315 5309 5301 5293 5284 5277 5267 5258 5252